• In Hungary
  • List of Countries
  • For 7 days
  • Water Temperature
  • Satellite Maps
  • Weather Map
  • News
  • Weather Widgets
  • user-avatar
    Login

    Hourly Weather Puertollano

    Today, 23 September, Sunday

    Time Temperature Precipitation Wind Pressure Humidity
    00:00 +26°C° 0 mm 1 mps 709 mmHg 34%
    01:00 +26°C° 0 mm 1 mps 709 mmHg 35%
    02:00 +25°C° 0 mm 1 mps 709 mmHg 37%
    03:00 +25°C° 0 mm 1 mps 709 mmHg 38%
    04:00 +24°C° 0 mm 1 mps 709 mmHg 39%
    05:00 +22°C° 0 mm 0 mps 709 mmHg 40%
    06:00 +21°C° 0 mm 0 mps 709 mmHg 42%
    07:00 +24°C° 0 mm 0 mps 709 mmHg 37%
    08:00 +28°C° 0 mm 1 mps 710 mmHg 32%
    09:00 +30°C° 0 mm 1 mps 710 mmHg 28%
    10:00 +32°C° 0 mm 1 mps 710 mmHg 25%
    11:00 +33°C° 0 mm 1 mps 710 mmHg 23%
    12:00 +35°C° 0 mm 1 mps 711 mmHg 20%
    13:00 +35°C° 0 mm 1 mps 710 mmHg 20%
    14:00 +36°C° 0 mm 1 mps 710 mmHg 19%
    15:00 +36°C° 0 mm 1 mps 709 mmHg 18%
    16:00 +35°C° 0 mm 1 mps 709 mmHg 20%
    17:00 +33°C° 0 mm 1 mps 709 mmHg 22%
    18:00 +32°C° 0 mm 1 mps 708 mmHg 23%
    19:00 +31°C° 0 mm 1 mps 709 mmHg 25%
    20:00 +30°C° 0 mm 1 mps 709 mmHg 26%
    21:00 +29°C° 0 mm 1 mps 709 mmHg 27%
    22:00 +28°C° 0 mm 1 mps 709 mmHg 29%
    23:00 +27°C° 0 mm 1 mps 709 mmHg 30%

    Tomorrow, 24 September, Monday

    Time Temperature Precipitation Wind Pressure Humidity
    00:00 +26°C° 0 mm 1 mps 709 mmHg 31%
    01:00 +26°C° 0 mm 1 mps 709 mmHg 32%
    02:00 +25°C° 0 mm 1 mps 708 mmHg 33%
    03:00 +25°C° 0 mm 1 mps 708 mmHg 34%
    04:00 +24°C° 0 mm 1 mps 708 mmHg 35%
    05:00 +22°C° 0 mm 0 mps 708 mmHg 36%
    06:00 +21°C° 0 mm 0 mps 708 mmHg 37%
    07:00 +26°C° 0 mm 1 mps 709 mmHg 34%
    08:00 +28°C° 0 mm 1 mps 709 mmHg 30%
    09:00 +30°C° 0 mm 1 mps 710 mmHg 26%
    10:00 +32°C° 0 mm 1 mps 710 mmHg 24%
    11:00 +33°C° 0 mm 1 mps 710 mmHg 22%
    12:00 +35°C° 0 mm 1 mps 710 mmHg 20%
    13:00 +36°C° 0 mm 1 mps 709 mmHg 19%
    14:00 +36°C° 0 mm 1 mps 709 mmHg 19%
    15:00 +36°C° 0 mm 1 mps 708 mmHg 18%
    16:00 +35°C° 0 mm 1 mps 708 mmHg 20%
    17:00 +33°C° 0 mm 1 mps 708 mmHg 22%
    18:00 +32°C° 0 mm 1 mps 707 mmHg 23%
    19:00 +31°C° 0 mm 1 mps 708 mmHg 25%
    20:00 +30°C° 0 mm 1 mps 708 mmHg 27%
    21:00 +28°C° 0 mm 1 mps 708 mmHg 29%
    22:00 +28°C° 0 mm 1 mps 708 mmHg 30%
    23:00 +27°C° 0 mm 1 mps 708 mmHg 32%

    Day after tomorrow, 25 September, Tuesday

    Time Temperature Precipitation Wind Pressure Humidity
    00:00 +26°C° 0 mm 1 mps 708 mmHg 33%
    01:00 +25°C° 0 mm 1 mps 708 mmHg 34%
    02:00 +25°C° 0 mm 1 mps 707 mmHg 35%
    03:00 +24°C° 0 mm 1 mps 707 mmHg 35%
    04:00 +24°C° 0 mm 1 mps 707 mmHg 36%
    05:00 +23°C° 0 mm 1 mps 707 mmHg 38%
    06:00 +23°C° 0 mm 1 mps 707 mmHg 39%
    07:00 +25°C° 0 mm 1 mps 708 mmHg 35%
    08:00 +27°C° 0 mm 1 mps 708 mmHg 32%
    09:00 +29°C° 0 mm 1 mps 709 mmHg 28%
    10:00 +31°C° 0 mm 2 mps 709 mmHg 26%
    11:00 +32°C° 0 mm 2 mps 709 mmHg 24%
    12:00 +35°C° 0 mm 2 mps 709 mmHg 22%
    13:00 +35°C° 0 mm 2 mps 708 mmHg 21%
    14:00 +35°C° 0 mm 3 mps 708 mmHg 20%
    15:00 +36°C° 0 mm 3 mps 707 mmHg 20%
    16:00 +35°C° 0 mm 2 mps 707 mmHg 21%
    17:00 +34°C° 0 mm 2 mps 707 mmHg 23%
    18:00 +31°C° 0 mm 2 mps 707 mmHg 25%
    19:00 +30°C° 0 mm 2 mps 707 mmHg 28%
    20:00 +29°C° 0 mm 2 mps 708 mmHg 31%
    21:00 +28°C° 0 mm 2 mps 708 mmHg 35%
    22:00 +27°C° 0 mm 2 mps 708 mmHg 38%
    23:00 +26°C° 0 mm 2 mps 708 mmHg 41%

    26 September, Wednesday

    Time Temperature Precipitation Wind Pressure Humidity
    00:00 +25°C° 0 mm 2 mps 708 mmHg 44%
    01:00 +24°C° 0 mm 1 mps 708 mmHg 47%
    02:00 +24°C° 0 mm 1 mps 708 mmHg 49%
    03:00 +23°C° 0 mm 1 mps 708 mmHg 51%
    04:00 +23°C° 0 mm 1 mps 708 mmHg 54%
    05:00 +23°C° 0 mm 1 mps 708 mmHg 56%
    06:00 +22°C° 0 mm 1 mps 708 mmHg 59%
    07:00 +24°C° 0 mm 1 mps 709 mmHg 54%
    08:00 +26°C° 0 mm 1 mps 709 mmHg 49%
    09:00 +27°C° 0 mm 1 mps 710 mmHg 45%
    10:00 +29°C° 0 mm 1 mps 710 mmHg 40%
    11:00 +31°C° 0 mm 1 mps 710 mmHg 36%
    12:00 +32°C° 0 mm 1 mps 710 mmHg 31%
    13:00 +32°C° 0 mm 1 mps 710 mmHg 30%
    14:00 +32°C° 0 mm 2 mps 710 mmHg 30%
    15:00 +32°C° 0 mm 2 mps 709 mmHg 29%
    16:00 +31°C° 0.4 mm 2 mps 709 mmHg 33%
    17:00 +30°C° 0.4 mm 3 mps 709 mmHg 37%
    18:00 +28°C° 0.4 mm 3 mps 709 mmHg 41%
    19:00 +27°C° 0.5 mm 3 mps 710 mmHg 46%
    20:00 +26°C° 0.5 mm 3 mps 710 mmHg 52%
    21:00 +25°C° 0.5 mm 3 mps 710 mmHg 57%
    22:00 +24°C° 0.3 mm 3 mps 710 mmHg 60%
    23:00 +24°C° 0.3 mm 2 mps 710 mmHg 64%

    27 September, Thursday

    Time Temperature Precipitation Wind Pressure Humidity
    00:00 +23°C° 0.3 mm 2 mps 710 mmHg 67%
    01:00 +21°C° 0.1 mm 2 mps 710 mmHg 69%
    02:00 +21°C° 0.1 mm 2 mps 710 mmHg 71%
    03:00 +20°C° 0.1 mm 2 mps 710 mmHg 73%
    04:00 +20°C° 0.1 mm 2 mps 710 mmHg 75%
    05:00 +20°C° 0.1 mm 2 mps 709 mmHg 76%
    06:00 +19°C° 0.1 mm 2 mps 709 mmHg 78%
    07:00 +21°C° 0 mm 2 mps 710 mmHg 71%
    08:00 +23°C° 0 mm 2 mps 710 mmHg 64%
    09:00 +24°C° 0 mm 2 mps 711 mmHg 58%
    10:00 +26°C° 0 mm 2 mps 711 mmHg 51%
    11:00 +28°C° 0 mm 2 mps 711 mmHg 44%
    12:00 +30°C° 0 mm 2 mps 711 mmHg 36%
    13:00 +31°C° 0 mm 2 mps 710 mmHg 34%
    14:00 +31°C° 0 mm 2 mps 710 mmHg 32%
    15:00 +31°C° 0 mm 2 mps 709 mmHg 30%
    16:00 +30°C° 0 mm 2 mps 709 mmHg 33%
    17:00 +29°C° 0 mm 3 mps 709 mmHg 36%
    18:00 +28°C° 0 mm 3 mps 709 mmHg 39%
    19:00 +27°C° 0 mm 3 mps 709 mmHg 45%
    20:00 +25°C° 0 mm 3 mps 709 mmHg 51%
    21:00 +24°C° 0 mm 3 mps 709 mmHg 58%
    22:00 +22°C° 0 mm 3 mps 709 mmHg 61%
    23:00 +23°C° 0 mm 2 mps 708 mmHg 65%

    28 September, Friday

    Time Temperature Precipitation Wind Pressure Humidity
    00:00 +21°C° 0 mm 2 mps 708 mmHg 69%
    01:00 +21°C° 0 mm 2 mps 708 mmHg 72%
    02:00 +21°C° 0 mm 1 mps 707 mmHg 74%
    03:00 +21°C° 0 mm 1 mps 707 mmHg 77%
    04:00 +20°C° 0 mm 1 mps 707 mmHg 78%
    05:00 +20°C° 0 mm 1 mps 707 mmHg 80%
    06:00 +19°C° 0 mm 1 mps 707 mmHg 82%
    07:00 +21°C° 0 mm 1 mps 707 mmHg 74%
    08:00 +23°C° 0 mm 1 mps 708 mmHg 65%
    09:00 +25°C° 0 mm 2 mps 708 mmHg 57%
    10:00 +27°C° 0 mm 1 mps 708 mmHg 50%
    11:00 +28°C° 0 mm 1 mps 708 mmHg 43%
    12:00 +30°C° 0 mm 1 mps 708 mmHg 36%
    13:00 +31°C° 0 mm 1 mps 707 mmHg 34%
    14:00 +31°C° 0 mm 1 mps 707 mmHg 32%
    15:00 +31°C° 0 mm 2 mps 706 mmHg 30%
    16:00 +30°C° 0 mm 2 mps 706 mmHg 32%
    17:00 +29°C° 0 mm 2 mps 706 mmHg 33%
    18:00 +28°C° 0 mm 1 mps 706 mmHg 35%
    19:00 +27°C° 0.3 mm 1 mps 706 mmHg 38%
    20:00 +26°C° 0.3 mm 2 mps 706 mmHg 42%
    21:00 +25°C° 0.3 mm 2 mps 706 mmHg 45%
    22:00 +24°C° 0 mm 1 mps 706 mmHg 47%
    23:00 +24°C° 0 mm 1 mps 705 mmHg 49%
    Show more